Regional Weather Roundup
Issued by NWS Burlington, VT

Home | Current Version | Previous Version | Text Only | Print | Product List | Glossary On
Versions: 1 2 3 4 5 6 7 8 9 10 11 12 13 14 15 16 17 18 19 20 21 22 23 24 25 26 27 28 29 30 31 32 33 34 35 36 37 38 39 40 41 42 43 44 45 46 47 48 49 50
000
ASUS41 KBTV 012230
RWRBTV
VERMONT REGIONAL WEATHER ROUNDUP
NATIONAL WEATHER SERVICE BURLINGTON VT
600 PM EDT SAT AUG 01 2015

NOTE: "FAIR" INDICATES FEW OR NO CLOUDS BELOW 12,000 FEET WITH NO
SIGNIFICANT WEATHER AND/OR OBSTRUCTIONS TO VISIBILITY.

* THESE REPORTS ARE NOT UNDER NWS QUALITY CONTROL AND/OR DO NOT
  REPORT WEATHER SUCH AS PRECIPITATION AND FOG.

VTZ001>019-012300-
_____VERMONT_____


CITY           SKY/WX    TMP DP  RH WIND       PRES   REMARKS
BURLINGTON     PTSUNNY   80  54  40 N5        29.73R
MONTPELIER     SUNNY     73  56  54 NW7       29.80R
MORRISVILLE    SUNNY     78  54  43 NW3       29.76R
ST. JOHNSBURY*   N/A     77  54  44 MISG      29.72R
LYNDONVILLE*   FAIR      73  55  52 W6        29.77S
MIDDLEBURY*    FAIR      80  52  37 W6        29.74S
SPRINGFIELD    SUNNY     81  53  37 VRB7      29.74S
HIGHGATE*      FAIR      76  57  50 CALM      29.72S
NEWPORT*       FAIR      72  55  55 W6        29.75F
BENNINGTON     SUNNY     78  54  43 NW9G17    29.78S
MT. MANSFIELD*   N/A     59 N/A N/A NW10        N/A

_____LAKE CHAMPLAIN_____


CITY           SKY/WX    TMP DP  RH WIND       PRES   REMARKS
COLCHESTER RF*   N/A     77  55  47 NW10        N/A
DIAMOND ISL*     N/A     79  52  38 W8          N/A

$$

NYZ007-026>031-035-052-083-012300-
_____NORTHERN NEW YORK_____


CITY           SKY/WX    TMP DP  RH WIND       PRES   REMARKS
PLATTSBURGH    PTSUNNY   80  57  45 VRB3      29.71F
SARANAC LAKE   PTSUNNY   68  53  58 W7        29.78F
MASSENA        LGT RAIN  61  57  87 S7        29.79R FOG
OGDENSBURG*    MOSUNNY   72  63  73 SW8       29.77R
POTSDAM*       LGT RAIN  64  61  88 N8        29.80R
WATERTOWN      MOSUNNY   73  59  61 SW15      29.79F
FT DRUM        MOSUNNY   73  58  59 SW17G24   29.79S
ALBANY         MOSUNNY   82  54  37 W16G26    29.76S
GLENS FALLS    SUNNY     80  53  39 W12G20    29.75R

$$
NHZ002-005-011-012300-
_____NEW HAMPSHIRE_____


CITY           SKY/WX    TMP DP  RH WIND       PRES   REMARKS
LEBANON        SUNNY     80  56  43 SW13      29.73S
KEENE          SUNNY     81  52  36 W6        29.75R
MT WASHINGTON  FOG       46  46 100 W47G58      N/A  VSB 0
PLYMOUTH       FAIR      77  61  58 W3        29.73R
WHITEFIELD     MOSUNNY   74  55  51 VRB6      29.75S

$$

_____REGIONAL QUEBEC LOCATIONS_____


CITY           SKY/WX    TMP DP  RH WIND       PRES   REMARKS
MONTREAL       TSTM      66  59  77 SW14G28   29.74R
QUEBEC CITY    PTSUNNY   72  59  64 W13       29.67R
SHERBROOKE     SUNNY     73  55  53 W12G20    29.72R

_____REGIONAL ONTARIO LOCATIONS_____


CITY           SKY/WX    TMP DP  RH WIND       PRES   REMARKS
OTTAWA         PTSUNNY   70  55  60 SW6       29.75R

______KEY______
VSB  - VISIBILITY IN MILES
WCI  - WIND CHILL INDEX
HX   - HEAT INDEX
$$
NNNN



USA.gov is the U.S. government's official web portal to all federal, state and local government web resources and services.